Regional Weather Roundup
Issued by NWS

Home | Current Version | Previous Version | Text Only | Print | Product List | Glossary Off
Versions: 1 2 3 4 5 6 7 8 9 10 11 12 13 14 15 16 17 18 19 20 21 22 23 24 25 26 27 28 29 30 31 32 33 34 35 36 37 38 39 40 41 42 43 44 45 46 47 48 49 50

575
ASUS43 KMPX 260510
RWRMN
WEATHER ROUNDUP FOR MINNESOTA
NATIONAL WEATHER SERVICE TWIN CITIES/CHANHASSEN MN
1200 AM CDT TUE SEP 26 2017


NOTE: "FAIR" INDICATES FEW OR NO CLOUDS BELOW 12,000 FEET WITH NO
SIGNIFICANT WEATHER AND/OR OBSTRUCTIONS TO VISIBILITY. N/A MEANS
CURRENT SKY AND/OR WEATHER CONDITIONS ARE NOT AVAILABLE.

MNZ060>063-068>070-260600-
   Twin Cities Metro

CITY           SKY/WX    TMP DP  RH WIND       PRES   REMARKS
TWIN CITIES    LGT RAIN  58  58 100 N9        29.95F
ST PAUL        CLOUDY    58  58 100 N9        29.95F
CRYSTAL        LGT RAIN  57  53  86 N6        29.94F
BLAINE         CLOUDY    57  57 100 N6        29.95F
LAKEVILLE      RAIN      57  57 100 NW3       29.95S
EDEN PRAIRIE   LGT RAIN  58  56  93 N6        29.94F
SOUTH ST PAUL  CLOUDY    59  58  96 N3        29.94F
LAKE ELMO      CLOUDY    59  57  94 N3        29.96F
$$
MNZ001>005-007-008-013>017-022>024-027-028-260600-
   Northwest Minnesota

CITY           SKY/WX    TMP DP  RH WIND       PRES   REMARKS
BEMIDJI        RAIN      49  49  97 N5        30.06S
HALLOCK          N/A     52  48  87 N7        30.12S
ROSEAU           N/A     50  45  81 N5        30.10F
WARROAD        CLOUDY    52  48  87 NE10      30.09F
THIEF RVR FALL CLOUDY    50  48  93 N8        30.09F
CROOKSTON      CLOUDY    52  48  87 N7        30.09F
FOSSTON        DRIZZLE   48  46  93 N6        30.07F
DETROIT LAKES  DRIZZLE   50  50 100 N3        30.05F
MOORHEAD       LGT RAIN  50  48  93 N7        30.07S
PARK RAPIDS    LGT RAIN  53  50  89 N8        30.04F
MAHNOMEN       LGT RAIN  50  48  94 NE6       30.06F
$$
MNZ006-009>011-018-025>026-260600-
   North Central Minnesota

CITY           SKY/WX    TMP DP  RH WIND       PRES   REMARKS
BAUDETTE       CLOUDY    50  48  93 NE8       30.08S
FLAG ISLAND    CLOUDY    52  46  82 NE7       30.09F
INTL FALLS     CLOUDY    52  47  83 E9        30.06F
WASKISH        CLOUDY    50  48  93 NE5       30.06F
BIG FORK       CLOUDY    52  50  93 CALM      30.05S
LONGVILLE      DRIZZLE   52  50  93 CALM      30.02S
GRAND RAPIDS   LGT RAIN  52  51  97 VRB5      30.03F
CRANE LAKE     CLOUDY    52  48  87 NE3       30.07F
ORR            CLOUDY    52  48  87 CALM      30.02F
WALKER         DRIZZLE   50  49  94 N6        30.04S
$$
MNZ012-019>021-037-260600-
   Northeast Minnesota

CITY           SKY/WX    TMP DP  RH WIND       PRES   REMARKS
DULUTH         LGT RAIN  54  54 100 NE7       29.99S FOG
ELY            RAIN      52  52 100 NE7       30.03F
HIBBING        LGT RAIN  52  51  97 N5        30.02F
EVELETH        DRIZZLE   54  52  95 NE6       30.03S
GRAND MARAIS     N/A     58  50  75 NE9       30.02F
$$
MNZ029>031-032-039>041-046>048-054>057-064-260600-
   West Central Minnesota

CITY           SKY/WX    TMP DP  RH WIND       PRES   REMARKS
FERGUS FALLS   RAIN      52  52 100 N5        30.04F
WHEATON        RAIN      50  48  93 NW7       30.06S
ALEXANDRIA     LGT RAIN  53  53 100 NE9       30.01F
ELBOW LAKE     DRIZZLE   52  52 100 CALM      30.03S
WADENA         RAIN      52  52 100 N5        30.03F
GLENWOOD       DRIZZLE   54  52  94 N8        30.00F
APPLETON       RAIN      54  52  94 N8        30.00F
BENSON         DRIZZLE   54  52  94 NE5       30.01F
ORTONVILLE     RAIN      52  48  87 N7        30.03S
MADISON        HVY RAIN  54  54 100 NW9       30.01F
WILLMAR        DRIZZLE   55  55 100 N5        30.00F
$$
MNZ033>034-036-042>043-049>051-058-059-260600-
   Central Minnesota

CITY           SKY/WX    TMP DP  RH WIND       PRES   REMARKS
ST CLOUD       LGT RAIN  55  55 100 N3        29.98F
SAUK CENTRE    DRIZZLE   53  52  97 N6        30.00F
PAYNESVILLE    DRIZZLE   55  54  98 NE6       29.99F
AITKIN         RAIN      54  52  94 N5        29.99F
PINE RIVER     DRIZZLE   50  46  87 N5        30.05F
BRAINERD       LGT RAIN  53  52  96 N10       30.00F FOG
STAPLES        DRIZZLE   52  52 100 NW5       30.02S
LITTLE FALLS   RAIN      54  50  87 CALM      29.99F
LITCHFIELD     DRIZZLE   55  55 100 NE7       29.98F
BUFFALO        RAIN      55  53  92 N5        29.98F
MAPLE LAKE     LGT RAIN  56  55  97 CALM      29.98F
HUTCHINSON     DRIZZLE   56  56  97 CALM      29.97F
$$
MNZ037-044-045-052-053-260600-
   East Central Minnesota

CITY           SKY/WX    TMP DP  RH WIND       PRES   REMARKS
PRINCETON      DRIZZLE   55  55 100 N5        29.98F
MORA           CLOUDY    54  52  94 CALM      29.99F
RUSH CITY      RAIN      55  54  94 N3        29.98F
MOOSE LAKE     LGT RAIN  54  54 100 CALM      29.97F
HINCKLEY       DRIZZLE   55  55 100 N5        29.98F
CLOQUET        LGT RAIN  55  54  94 N5        29.99F
MCGREGOR       CLOUDY    54  52  94 N7        30.01F
$$
MNZ071>073-080-081-089-090-097-098-260600-
   Southwest Minnesota

CITY           SKY/WX    TMP DP  RH WIND       PRES   REMARKS
MONTEVIDEO     DRIZZLE   54  52  94 N6        29.99F
GRANITE FALLS  DRIZZLE   55  54  97 NW5       30.00F
CANBY          RAIN      52  51  97 W7        30.02S
MARSHALL       LGT RAIN  52  52 100 N9        30.00F
REDWOOD FALLS  LGT RAIN  56  53  90 N5        29.96F
OLIVIA         LGT RAIN  54  52  94 N7        29.96F
PIPESTONE      DRIZZLE   52  52 100 N7        30.00S
WORTHINGTON    LGT RAIN  54  53  97 N7        29.97F
JACKSON        DRIZZLE   55  55 100 CALM      29.97F
TRACY          RAIN      54  54 100 N5        29.99F
SLAYTON        RAIN      52  45  77 N7        29.99F
$$
MNZ065>067-074>077-082>085-091>093-260600-
   South Central Minnesota

CITY           SKY/WX    TMP DP  RH WIND       PRES   REMARKS
MANKATO        LGT RAIN  57  56  96 N7        29.96F
NEW ULM        DRIZZLE   55  55 100 NE7       29.95F
ST JAMES       DRIZZLE   57  55  94 N5        29.96F
FAIRMONT       CLOUDY    57  56  96 NE6       29.94F
FARIBAULT      DRIZZLE   59  57  94 N3        29.96S
OWATONNA       LGT RAIN  59  57  94 NE3       29.95F
WASECA         DRIZZLE   57  55  94 N5        29.95F
ALBERT LEA     LGT RAIN  63  63 100 N5        29.94F
$$
MNZ078>079-086>088-094>096-260600-
   Southeast Minnesota

CITY           SKY/WX    TMP DP  RH WIND       PRES   REMARKS
ROCHESTER      LGT RAIN  62  61  96 N5        29.96S
RED WING       CLOUDY    63  59  88 CALM      29.94R
STANTON        CLOUDY    60  57  91 N5        29.94F
DODGE CENTER   LGT RAIN  61  57  88 CALM      29.96S
WINONA         CLOUDY    64  63  94 CALM      29.94S
AUSTIN         LGT RAIN  63  61  94 CALM      29.98F
PRESTON        CLOUDY    63  62  95 CALM      29.95F FOG
$$
ABBREVIATIONS USED IN REMARKS
   TC - TEMPERATURES IN CELSIUS
  WCI - WIND CHILL INDEX
   HX - HEAT INDEX
  VSB - VISIBILITY
$$




USA.gov is the U.S. government's official web portal to all federal, state and local government web resources and services.